Regional Weather Roundup
Issued by NWS

Home | Current Version | Previous Version | Graphics & Text | Print | Product List | Glossary On
Versions: 1 2 3 4 5 6 7 8 9 10 11 12 13 14 15 16 17 18 19 20 21 22 23 24 25 26 27 28 29 30 31 32 33 34 35 36 37 38 39 40 41 42 43 44 45 46 47 48
000
ASUS43 KDMX 290207
RWRIA

WEATHER ROUNDUP FOR IOWA
NATIONAL WEATHER SERVICE DES MOINES IA
800 PM CST SUN DEC 28 2014

NOTE: "FAIR" INDICATES FEW OR NO CLOUDS BELOW 12,000 FEET WITH NO
SIGNIFICANT WEATHER AND/OR OBSTRUCTIONS TO VISIBILITY.

* - THESE STATIONS ARE NOT NWS STATIONS...THUS NOT UNDER NWS
QUALITY CONTROL.  THEY ALSO DO NOT REPORT WEATHER SUCH
AS PRECIPITATION OR FOG.

IAZ001>003-012>014-020>022-031>034-043>046-290300-
   NORTHWEST IOWA

CITY           SKY/WX    TMP DP  RH WIND       PRES   REMARKS
CARROLL *      CLOUDY    21  18  86 N8        30.19R WCI  12
CHEROKEE *     CLOUDY    19  18  93 N5        30.22R WCI  13
DENISON *      CLOUDY    23  19  86 NE8       30.17R WCI  14
LE MARS *      CLOUDY    21  19  93 NE7       30.23R WCI  13
ORANGE CITY *  MOCLDY    19  16  86 E8        30.21R WCI   9
SHELDON *      CLOUDY    18  18 100 NE14      30.20R FOG     WCI   4
SIOUX CITY     CLOUDY    22  16  78 NE7       30.21R WCI  13
SPENCER        CLOUDY    18  15  88 NE12      30.22R WCI   5
STORM LAKE *   CLOUDY    19  16  86 NE14      30.20R WCI   6
$$

IAZ055>058-069>071-079>083-090>094-290300-
   SOUTHWEST IOWA

CITY           SKY/WX    TMP DP  RH WIND       PRES   REMARKS
ATLANTIC *     CLOUDY    28  25  86 NE6       30.16R WCI  22
AUDUBON *      CLEAR     25  19  80 NE5       30.17R WCI  19
CLARINDA *     CLOUDY    30  27  86 N6        30.18R WCI  24
COUNCIL BLFS * CLOUDY    28  27  93 N8        30.14S WCI  20
CRESTON *      CLOUDY    30  27  86 NE5       30.16R WCI  25
HARLAN  *      CLOUDY    28  28 100 N7        30.20R WCI  21
LAMONI         CLOUDY    30  19  63 CALM      30.15S
RED OAK *      CLOUDY    28  27  93 N3        30.17R
SHENANDOAH *   CLOUDY    30  27  86 NE3       30.17R
$$

IAZ047>049-059>061-072>074-084-290300-
   CENTRAL IOWA

CITY           SKY/WX    TMP DP  RH WIND       PRES   REMARKS
AMES           MOCLDY    26  22  84 N8        30.20R WCI  18
ANKENY *       CLOUDY    28  25  86 N3        30.19S
CHARITON *     CLOUDY    28  23  80 CALM      30.17S
DES MOINES     CLOUDY    31  22  69 NE6       30.18S WCI  25
GRINNELL*      MOCLDY    28  23  80 E5        30.20R WCI  23
KNOXVILLE *    CLOUDY    30  23  74 E3        30.17S
MARSHALLTOWN   MOCLDY    26  23  88 NE6       30.19R WCI  19
PELLA *        CLOUDY    32  23  69 E3        30.20R
PERRY *        MOCLDY    27  27 100 N7        30.19R WCI  19
$$

IAZ004>006-015-016-023>025-035-036-290300-
   NORTH CENTRAL IOWA

CITY           SKY/WX    TMP DP  RH WIND       PRES   REMARKS
ALGONA *       CLEAR     18  16  93 NE7       30.22R WCI   8
CLARION *      CLEAR     16  14  93 NE10      30.22R WCI   3
ESTHERVILLE    FOG       17  16  95 N13       30.22R VSB 1   WCI   4
FORT DODGE *   CLOUDY    18  12  79 NE6       30.22R WCI   9
MASON CITY     MOCLDY    12   9  87 N3        30.24R
FOREST CITY *  CLEAR     18  14  86 CALM      30.22R
IOWA FALLS *     N/A     23  19  86 NE6       30.21S WCI  16
$$

IAZ007>011-017>019-026>030-037>042-050>054-066-290300-
   NORTHEAST IOWA

CITY           SKY/WX    TMP DP  RH WIND       PRES   REMARKS
CEDAR RAPIDS   PTCLDY    26  17  68 CALM      30.21R
CHARLES CITY * PTCLDY    18  16  93 NE6       30.23R WCI   9
CLINTON *      CLEAR     25  16  68 N3        30.25R
DECORAH *      CLEAR     19  16  86 N7        30.21R WCI  10
DUBUQUE        MOCLDY    24  16  71 N5        30.20R WCI  18
MONTICELLO *   CLEAR     23  21  93 CALM      30.21R
OELWEIN *      PTCLDY    25  21  86 N8        30.22R WCI  16
WATERLOO       MOCLDY    23  21  92 N3        30.22R
$$

IAZ064-065-067-068-078-290300-
   EAST CENTRAL IOWA

CITY           SKY/WX    TMP DP  RH WIND       PRES   REMARKS
DAVENPORT      CLEAR     24  18  77 NE3       30.22R
IOWA CITY      PTCLDY    22  17  81 CALM      30.23R
MT. PLEASANT * CLEAR     27  18  69 CALM      30.21R
MUSCATINE *    CLEAR     25  19  80 CALM      30.23R
QUAD CITIES    CLEAR     22  17  81 CALM      30.22R
$$

IAZ062-063-075>077-085>089-095>099-290300-
   SOUTHEAST IOWA

CITY           SKY/WX    TMP DP  RH WIND       PRES   REMARKS
BURLINGTON     CLEAR     27  22  81 CALM      30.21R
FAIRFIELD *    CLEAR     27  19  74 E5        30.21R WCI  21
FORT MADISON * CLEAR     30  19  64 CALM      30.22R
KEOKUK *       CLEAR     27  18  69 CALM      30.21R
OSKALOOSA *      N/A     27  21  80 E5        30.20R WCI  21
CENTERVILLE *  CLEAR     27  23  86 SE3       30.19R
OTTUMWA        MOCLDY    28  20  71 E6        30.19R WCI  22
WASHINGTON *   CLEAR     27  19  74 E5        30.21R WCI  21
$$

ABBREVIATIONS USED IN REMARKS
   TC - TEMPERATURES IN CELSIUS
  WCI - WIND CHILL INDEX
   HX - HEAT INDEX
  VSB - VISIBILITY
$$



USA.gov is the U.S. government's official web portal to all federal, state and local government web resources and services.